Regional Weather Roundup
Issued by NWS

Home | Current Version | Previous Version | Graphics & Text | Print | Product List | Glossary Off
Versions: 1 2 3 4 5 6 7 8 9 10 11 12 13 14 15 16 17 18 19 20 21 22 23 24 25 26 27 28 29 30 31 32 33 34 35 36 37 38 39 40 41 42 43 44 45 46 47 48 49 50

000
ASUS43 KMKX 270800
RWRWI

WISCONSIN REGIONAL WEATHER ROUNDUP
NATIONAL WEATHER SERVICE MILWAUKEE/SULLIVAN WI
300 AM CDT WED JUL 27 2016

NOTE: "FAIR" INDICATES FEW OR NO CLOUDS BELOW 12,000 FEET WITH NO
SIGNIFICANT WEATHER AND/OR OBSTRUCTIONS TO VISIBILITY.

WIZ001-002-006>008-014>016-023>028-270900-
NORTHWEST WISCONSIN

CITY           SKY/WX    TMP DP  RH WIND       PRES   REMARKS
SUPERIOR ARPT  CLOUDY    66  65  97 CALM      29.94S
ASHLAND        CLOUDY    69  67  93 W6        29.96S
HAYWARD        LGT RAIN  67  65  93 CALM      29.98S
SIREN          CLOUDY    70  63  78 CALM      29.97F
CUMBERLAND     CLOUDY    68  63  83 CALM      29.99R
RICE LAKE      CLOUDY    67  64  88 CALM      30.00R
CHETEK         CLOUDY    69  66  92 CALM      29.98F
LADYSMITH      CLOUDY    66  63  90 CALM      30.01F
EAU CLAIRE     NOT AVBL
MENOMONIE      CLOUDY    69  65  87 CALM      29.98F
NEW RICHMOND   CLOUDY    69  64  86 CALM      29.99R
OSCEOLA        CLOUDY    69  62  79 CALM      30.00R
$$

WIZ003>005-009-010-017-018-270900-
NORTH CENTRAL WISCONSIN

CITY           SKY/WX    TMP DP  RH WIND       PRES   REMARKS
MANITOWISH WTR CLOUDY    67  67 100 CALM      29.99F
ARBOR VITAE    CLOUDY    65  61  87 NW3       30.00F
WOODRUFF       CLOUDY    65  61  87 NW3       30.00F
RHINELANDER    CLOUDY    64  60  87 W7        29.99F
EAGLE RIVER    RAIN      62  60  93 CALM      30.02F
LAND O LAKES   CLOUDY    64  59  84 CALM      30.03F
PHILLIPS       CLOUDY    65  65 100 CALM      29.99F FOG
TOMAHAWK       MOCLDY    62  60  95 CALM      30.00F
MEDFORD        PTCLDY    63  63 100 CALM      30.00F
MERRILL        CLEAR     64  61  91 CALM      30.01S
$$

WIZ029-030-035-036-043>047-270900-
CENTRAL WISCONSIN

CITY           SKY/WX    TMP DP  RH WIND       PRES   REMARKS
WAUSAU         PTCLDY    71  64  78 NW3       29.98F
MOSINEE        CLEAR     70  68  94 NW5       30.01S
MARSHFIELD     CLEAR     69  66  90 W3        29.99F
STEVENS POINT  CLEAR     72  66  82 W6        30.00S
WAUPACA        CLEAR     74  70  85 W3        29.98S
WAUTOMA        CLEAR     67  66  97 CALM      29.99F
WISC RAPIDS    CLEAR     69  65  86 SW3       30.00F
CAMP DOUGLAS   NOT AVBL
$$

WIZ011>013-019>022-031-037>040-048>050-270900-
NORTHEAST WISCONSIN

CITY           SKY/WX    TMP DP  RH WIND       PRES   REMARKS
ANTIGO         PTCLDY    66  60  80 CALM      30.02S
SHAWANO        PTCLDY    74  67  78 W5        29.98R
OCONTO         PTCLDY   N/A N/A N/A CALM      29.94S
STURGEON BAY   CLEAR     74  69  85 SW7       29.96S
GREEN BAY      CLEAR     73  70  90 SW3       29.96S
MANITOWOC      NOT AVBL
APPLETON       CLEAR     72  64  78 W7        29.97S
CLINTONVILLE   PTCLDY    72  64  78 W3        29.97F
OSHKOSH        CLEAR     72  66  81 W3        29.98S
$$

WIZ032>034-041-042-053>061-270900-
SOUTHWEST WISCONSIN

CITY           SKY/WX    TMP DP  RH WIND       PRES   REMARKS
LA CROSSE      CLEAR     71  68  90 SE5       29.97F
SPARTA         CLEAR     63  63 100 CALM      30.00F
VIROQUA        CLEAR     66  66 100 CALM      30.02S
BOSCOBEL       FOG       65  64  97 CALM      30.00S VSB 3/4
PRAIRIE DU CHI CLEAR     67  64  92 CALM      30.00F
PLATTEVILLE    CLEAR     67  67  99 CALM      30.02S
$$

WIZ056-057-062-063-064-067-068-270900-
SOUTH CENTRAL WISCONSIN

CITY           SKY/WX    TMP DP  RH WIND       PRES   REMARKS
REEDSBURG      CLEAR     67  67  99 CALM      30.00S
BARABOO/DELLS  CLEAR     66  64  91 CALM      30.02R
LONE ROCK      NOT AVBL
MINERAL POINT  CLEAR     72  64  78 CALM      30.02S
MADISON        CLEAR     67  64  90 CALM      30.00S
MIDDLETON      CLEAR     65  65  99 CALM      30.02S
WATERTOWN      CLEAR     65  65 100 CALM      29.99F
MONROE         CLEAR     72  63  73 W8        30.02R
JANESVILLE     CLEAR     68  66  94 CALM      30.00S
$$

WIZ051-052-058>065-066-070>072-270900-
SOUTHEAST WISCONSIN

CITY           SKY/WX    TMP DP  RH WIND       PRES   REMARKS
MILWAUKEE      CLEAR     73  65  75 SW3       29.99S
WAUKESHA       CLEAR     64  63  94 CALM      30.02S
MILWAUKEE/TIMM CLEAR     68  61  77 SW3       30.00F
RACINE         CLEAR     71  63  75 W6        30.01S
BURLINGTON     CLEAR     63  62  97 CALM      30.01R
KENOSHA        CLEAR     66  63  90 W3        30.01R
FOND DU LAC    CLEAR     70  65  84 SW3       29.98F
SHEBOYGAN      CLEAR     71  64  78 NW7       29.97F
WEST BEND      CLEAR     64  63  94 CALM      29.99F
JUNEAU         CLEAR     66  65  94 S3        30.01S
$$

LSZ147-162-270900-
LAKE SUPERIOR

STATION/POSITION TIME  TEMP    WIND        PRES    WAVE
                       AIR SEA DIR/SP/G            HT/PER
                 (UTC) (F)     (DEG/KT/KT) (MB)    (FT/S)
W MID LAKE BUOY  0650   65 61  360/  6/  8 1013.9R   0
DEVILS ISLAND    0700   70      10/  7/  8 1013.8F
PORT WING        0700   71     190/  5/  6 1014.2F
SAXON HARBOR     0700   72     180/  3/  5 1013.5F
$$

LMZ867-665-643>646-270900-
LAKE MICHIGAN

STATION/POSITION TIME  TEMP    WIND        PRES    WAVE
                       AIR SEA DIR/SP/G            HT/PER
                 (UTC) (F)     (DEG/KT/KT) (MB)    (FT/S)
CHAMBERS ISLAND  0700   72     230/  2/  4 1013.9R
S GREEN BAY BUOY 0700   72 74   20/  2/  2   N/A
N MID LAKE BUOY  0650   71 69  260/  8/ 10 1012.6R   2/ 5
NORTHPORT PIER   0700   75     280/  6/ 10 1013.5R
SISTER BAY       0721   74     270/  7/  7   N/A
ALGOMA LAKESHORE 0713          300/  6/ 10   N/A
KEWAUNEE LAKESHO 0700   76     280/  5/  7 1013.8R
SHEBOYGAN LAKESH 0700   74     250/  9/ 10 1014.8F
PORT WASHINGTON  0700   72     260/  3/  5 1015.9F
ATWATER BUOY     0700   68 55  350/  2/  2 1017.1S
MILWAUKEE LAKESH 0710   72     150/  2/  3   N/A
S MID LAKE BUOY  0650   75 76  190/  6/  6 1014.8F   0
KENOSHA   LAKESH 0700   75     240/  4/  7 1015.2F
$$

TC  - TEMPERATURE IN CELSIUS
VSB - VISIBILITY IN STATUTE MILES
WCI - WIND CHILL INDEX
HX  - HEAT INDEX





USA.gov is the U.S. government's official web portal to all federal, state and local government web resources and services.